Simultaneous Nadir Overpasses (SNOs) Predictions

Prediction of SNOs between LANDSAT-8 and NPP Satellite Orbit:

Table of predicted SNOs for the next 14.0 days since TLE Epoch: 12/9/2023
Index Date (LANDSAT-8) Time (LANDSAT-8) Lat,Lon (LANDSAT-8) SZA (LANDSAT-8 ) Date (NPP) Time (NPP) Lat,Lon (NPP) SZA (NPP ) Distance(km) Time Diff (sec)
1 12/09/2023 06:08:54 70.67, 85.04 93.36 12/09/2023 06:07:44 70.75, 83.53 93.46 56.39 70
2 12/09/2023 06:58:32 -70.12,-108.13 87.19 12/09/2023 06:58:15 -70.09,-108.11 87.22 3.13 17
3 12/09/2023 07:47:58 70.02, 59.37 92.72 12/09/2023 07:48:59 70.02, 59.30 92.72 2.54 61
4 12/11/2023 22:25:33 70.19,-159.80 93.12 12/11/2023 22:24:25 70.18,-159.78 93.12 1.12 68
5 12/11/2023 23:15:03 -70.08, 7.68 86.99 12/11/2023 23:15:07 -70.09, 7.67 86.97 1.66 4
6 12/12/2023 00:04:35 69.70, 174.79 92.64 12/12/2023 00:05:46 69.71, 175.55 92.64 29.12 71
7 12/14/2023 14:42:04 70.18, -43.94 93.30 12/14/2023 14:41:18 70.19, -44.02 93.32 3.40 46
8 12/14/2023 15:31:34 -70.07, 123.54 86.81 12/14/2023 15:31:59 -70.05, 123.51 86.83 3.00 25
9 12/17/2023 06:58:35 70.15, 71.89 93.40 12/17/2023 06:58:10 70.16, 71.81 93.41 3.13 25
10 12/17/2023 07:48:06 -69.99,-120.70 86.76 12/17/2023 07:48:51 -70.01,-120.65 86.74 2.79 45
11 12/19/2023 22:25:35 -70.43, 20.53 86.25 12/19/2023 22:24:23 -70.49, 19.75 86.17 29.76 72
12 12/19/2023 23:15:06 70.10,-172.31 93.43 12/19/2023 23:15:01 70.07,-172.28 93.41 2.54 5
13 12/20/2023 00:04:35 -70.00, -4.81 86.67 12/20/2023 00:05:42 -69.98, -4.82 86.69 2.30 67
14 12/22/2023 14:42:09 -70.14, 135.99 86.51 12/22/2023 14:41:08 -70.15, 136.07 86.49 3.18 61
15 12/22/2023 15:31:35 70.08, -56.46 93.44 12/22/2023 15:31:52 70.05, -56.47 93.41 3.02 17
16 12/22/2023 16:21:15 -69.43, 110.29 87.20 12/22/2023 16:22:24 -69.42, 111.78 87.24 58.20 69



Historial Predications of SNOs between LANDSAT-8 and NPP
